Location: Suzhou
(31.3110°N, 120.6180°E)
Time: 17:33:43
(UTC+08:00)

NOAA 15 - Pass Details

Date: 25 May 2024
Orbit: 796 x 810 km, 98.6° (Epoch: 13 June)

Event Time Altitude Azimuth Distance (km) Brightness Sun altitude
Rises 20:20:12 0° 218° (SW) 3,286 7.8 -16.6°
Reaches altitude 10° 20:24:51 10° 256° (WSW) 2,362 7.5 -17.4°
Maximum altitude 20:25:52 11° 268° (W) 2,325 7.7 -17.6°
Drops below altitude 10° 20:26:54 10° 279° (W) 2,364 7.9 -17.7°
Sets 20:31:36 0° 318° (NW) 3,301 9.4 -18.5°
